This demonstration page uses our WeatherBlox Daily Observations layout. Learn more.

39.92423, -83.80882

Hourly Observations for December 14, 2017

Temp ( °F °C ) Dew Point ( °F °C ) Humidity (%) Winds ( mph kmh ) Pressure ( in mb ) Visibility ( mi km ) Precip ( " mm )
12:56 am 00:56 Cloudy with Light Wintry Mix 32 0 25 -3.9 75 75 W 30 48 29.59 1002 10 16.0934 0 0.0254
1:56 am 01:56 Windy with Snow Likely 30 -1.1 23 -5 75 75 WNW 23 37 29.65 1004 9 14.48406 0 0.0254
2:56 am 02:56 Cloudy with Light Snow 30 -1.1 24 -4.4 79 79 WNW 15 24 29.71 1006 9 14.48406 0 0.0254
3:56 am 03:56 Cloudy 27 -2.8 19 -7.2 72 72 NNW 20 31 29.78 1008 10 16.0934 0 0.0254
4:56 am 04:56 Cloudy 23 -5 18 -7.8 81 81 NNW 16 26 29.82 1010 10 16.0934 0 0
5:53 am 05:53 Cloudy 21 -6 18 -8 86 86 NNW 16 26 29.94 1014 10 16.0934 0 0
5:56 am 05:56 Cloudy 22 -5.6 17 -8.3 82 82 NNW 15 24 29.89 1012 10 16.0934 0 0
6:56 am 06:56 Cloudy 21 -6.1 17 -8.3 85 85 NNW 8 13 29.93 1013 10 16.0934 0 0
7:56 am 07:56 Cloudy 21 -6.1 16 -8.9 81 81 NNW 10 17 29.98 1015 10 16.0934 0 0
8:56 am 08:56 Cloudy with Light Snow 21 -6.1 16 -8.9 81 81 N 8 13 30.01 1016 9 14.48406 0 0.0254
9:56 am 09:56 Cloudy with Light Snow 21 -6.1 16 -8.9 81 81 N 7 11 30.03 1017 9 14.48406 0 0.0254
10:56 am 10:56 Cloudy with Light Snow 22 -5.6 16 -8.9 78 78 N 12 19 30.05 1018 9 14.48406 0 0.0254
11:56 am 11:56 Cloudy 22 -5.6 15 -9.4 75 75 NE 5 7 30.06 1018 10 16.0934 0 0.0254
12:56 pm 12:56 Cloudy 22 -5.6 16 -8.9 78 78 NNW 5 7 30.06 1018 10 16.0934 0 0
1:56 pm 13:56 Cloudy 22 -5.6 15 -9.4 75 75 NNW 6 9 30.06 1018 10 16.0934 0 0
2:56 pm 14:56 Cloudy 23 -5 16 -8.9 74 74 N 5 7 30.06 1018 10 16.0934 0 0
3:48 pm 15:48 Partly Cloudy 23 -5 16 -9 74 74 Calm 30.12 1020 10 16.0934 0 0
3:56 pm 15:56 Mostly Sunny 23 -5 16 -8.9 74 74 Calm 30.07 1018 10 16.0934 0 0
4:56 pm 16:56 Sunny 22 -5.6 16 -8.9 78 78 Calm 30.09 1019 10 16.0934 0 0
5:56 pm 17:56 Clear 21 -6.1 15 -9.4 78 78 Calm 30.11 1020 10 16.0934 0 0
6:56 pm 18:56 Clear 20 -6.7 17 -8.3 89 89 Calm 30.12 1020 10 16.0934 0 0
7:56 pm 19:56 Clear 20 -6.7 16 -8.9 85 85 Calm 30.12 1020 10 16.0934 0 0
8:56 pm 20:56 Clear 20 -6.7 17 -8.3 89 89 Calm 30.11 1020 10 16.0934 0 0
9:56 pm 21:56 Clear 18 -7.8 15 -9.4 88 88 Calm 30.13 1020 10 16.0934 0 0
10:56 pm 22:56 Clear 18 -7.8 16 -8.9 92 92 N 3 6 30.12 1020 10 16.0934 0 0
11:56 pm 23:56 Clear 16 -8.9 14 -10 92 92 Calm 30.11 1020 10 16.0934 0 0

Powered by AerisWeather